Location: Unspecified
(41.5000°N, 0.0000°E)
Time: 04:49:36
(UTC+00:00)

Vanguard 2 - Pass Details

Date: 23 June 2019
Orbit: 553 x 2938 km, 32.9° (Epoch: 20 July)

Event Time Altitude Azimuth Distance (km) Brightness Sun altitude
Rises 08:09:21 0° 234° (SW) 3,012 10.2 38.7°
Reaches altitude 10° 08:11:33 10° 224° (SW) 2,266 9.7 39.1°
Maximum altitude 08:16:15 33° 160° (SSE) 1,566 9.7 40.0°
Drops below altitude 10° 08:23:15 10° 100° (E) 3,433 12.0 41.3°
Sets 08:27:23 0° 93° (E) 4,846 12.5 42.1°
